Regional Weather Roundup
Issued by NWS

Home | Current Version | Previous Version | Text Only | Print | Product List | Glossary On
Versions: 1 2 3 4 5 6 7 8 9 10 11 12 13 14 15 16 17 18 19 20 21 22 23 24 25 26 27 28 29 30 31 32 33 34 35 36 37 38 39 40 41 42 43 44 45 46 47 48 49 50
000
ASUS45 KPSR 250410
RWRAZ

ARIZONA HOURLY REGIONAL WEATHER ROUNDUP
NATIONAL WEATHER SERVICE PHOENIX AZ
900 PM MST SUN JUL 24 2016

NOTE: FAIR INDICATES FEW OR NO CLOUDS BELOW 12,000 FEET WITH NO
SIGNIFICANT WEATHER AND/OR OBSTRUCTIONS TO VISIBILITY.

AZZ001>003-036-250500-
NORTHWEST ARIZONA

CITY           SKY/WX    TMP DP  RH WIND       PRES   REMARKS
BULLHEAD CITY  CLEAR    106  57  20 SE15      29.74R HX 105
KINGMAN        CLEAR     90  55  30 SW10      30.01R
$$

AZZ004>008-015-016-018-250500-
NORTH CENTRAL ARIZONA

CITY           SKY/WX    TMP DP  RH WIND       PRES   REMARKS
GRAND CANYON   MOCLDY    65  51  60 N3        30.29R
WILLIAMS       PTCLDY    63  55  77 S8        30.39R
PRESCOTT       PTCLDY    82  52  35 W5        30.15R
FLAGSTAFF      MOCLDY    71  44  37 VRB6      30.34R
PAYSON         PTCLDY    79  48  34 NW5       30.17R
PAGE           MOCLDY    87  42  20 S15G24    30.04F
$$

AZZ009>014-017-250500-
NORTHEAST ARIZONA

CITY           SKY/WX    TMP DP  RH WIND       PRES   REMARKS
WINSLOW        MOCLDY    82  51  34 E10       30.20R
SAINT JOHNS    CLOUDY    72  54  53 N9        30.23F
WINDOW ROCK    CLOUDY    70  50  49 SW10      30.32R
SHOW LOW       CLOUDY    72  45  37 E10       30.28R
$$

AZZ023-250500-
GREATER PHOENIX AREA

CITY           SKY/WX    TMP DP  RH WIND       PRES   REMARKS
PHOENIX        PTCLDY   102  56  21 W7        29.77S HX 101
BUCKEYE        CLEAR    100  55  22 SW9       29.80R
LUKE AFB       CLEAR    101  57  23 SW9       29.77R HX 101
DEER VALLEY    CLEAR    100  56  23 SW7       29.80S
SCOTTSDALE     CLEAR    101  55  21 SW5       29.82S
MESA-GATEWAY   PTCLDY   100  57  23 W8        29.82S
CHANDLER       PTCLDY   100  55  22 W6        29.80S
$$

AZZ027-028-250500-
SOUTHWEST MARICOPA COUNTY AND PINAL COUNTY

CITY           SKY/WX    TMP DP  RH WIND       PRES   REMARKS
CASA GRANDE    CLEAR    100  55  22 W5        29.85R
GILA BEND      FAIR      97  62  31 SW15      29.78R
$$

AZZ503-504-507>509-250500-
SOUTHEAST ARIZONA

CITY           SKY/WX    TMP DP  RH WIND       PRES   REMARKS
TUCSON         CLEAR     96  56  26 N8        29.94R
DAVIS-MONTHAN  CLEAR     94  56  27 NW9       29.93R
NOGALES        PTCLDY    79  61  53 S7        30.08R
SIERRA VISTA   PTCLDY    82  53  36 W10       30.14R
DOUGLAS        TSTM      66  62  87 SE30G40   30.19R
SAFFORD        MOCLDY    93  46  19 W8        29.93R
$$

AZZ020-021-025-026-031-250500-
SOUTHWEST ARIZONA

CITY           SKY/WX    TMP DP  RH WIND       PRES   REMARKS
YUMA           CLEAR     92  68  45 S16       29.79R
$$

CAZ031-033-041-043-047-048-061-250500-
SOUTHERN CALIFORNIA

CITY           SKY/WX    TMP DP  RH WIND       PRES   REMARKS
DOWNTOWN L.A.  CLEAR     74  66  76 VRB3      29.89R
L.A. AIRPORT   PTCLDY    71  66  84 W7        29.90R
SAN DIEGO      MOCLDY    71  65  81 VRB3      29.92R
BURBANK        CLEAR     80  64  58 SE7       29.89R
ONTARIO        PTCLDY    84  50  30 W14       29.90R
RIVERSIDE      CLEAR     84  51  31 W6        29.90R
PALM SPRINGS   MOCLDY   102  51  18 VRB5      29.78R
EL CENTRO NAS  MOCLDY    93  67  42 SE14      29.74R
IMPERIAL       MOCLDY    95  69  42 SE13      29.73R HX 100
BLYTHE         PTCLDY    97  64  33 S13       29.77R
NEEDLES        CLOUDY   106  53  17 S14       29.76R HX 104
$$

NVZ020-UTZ003-250500-
SOUTHERN NEVADA-UTAH

CITY           SKY/WX    TMP DP  RH WIND       PRES   REMARKS
LAS VEGAS      CLEAR    103  33   9 S9        29.77R
SALT LAKE CITY CLEAR     83  40  21 CALM      30.02R
$$

NMZ009-TXZ055-250500-
NEW MEXICO-WEST TEXAS

CITY           SKY/WX    TMP DP  RH WIND       PRES   REMARKS
ALBUQUERQUE    CLOUDY    77  52  41 N5        30.24R
EL PASO        MOCLDY    96  44  16 N13       29.96R
$$


........................KEY........................
SKY/WX - SKY CONDITION/WEATHER
TMP    - TEMPERATURE IN FAHRENHEIT
DP     - DEW POINT IN FAHRENHEIT
RH     - RELATIVE HUMIDITY IN PERCENT
WIND   - DIRECTION AND SPEED IN MILES PER HOUR (MPH)
VRB    - VARIABLE WIND DIRECTION
PRES   - MEAN SEA LEVEL PRESSURE IN INCHES OF MERCURY
         F - FALLING PRESSURE   R - RISING PRESSURE
         S - STEADY PRESSURE
VSB    - VISIBILITY IN MILES
HX     - HEAT INDEX IN FAHRENHEIT
WCI    - WIND CHILL INDEX IN FAHRENHEIT
TC     - TEMPERATURE IN CELSIUS WHICH IS ALSO KNOWN AS
         TEMPERATURE IN CENTIGRADE
AFB    - AIR FORCE BASE
         LUKE AFB IS LUKE AIR FORCE BASE
         DAVIS-MONTHAN IS DAVIS-MONTHAN AIR FORCE BASE
NAS    - NAVAL AIR STATION
         EL CENTRO NAS IS EL CENTRO NAVAL AIR STATION
N/A    - NOT AVAILABLE




USA.gov is the U.S. government's official web portal to all federal, state and local government web resources and services.